FALCON 9 DEB (48153 NORAD) Tracking and Keplerian Element Data

This shows tracking and keplerian element data for the satellite.

Feedback or suggestion? Click here.




ElementValue
Catalog48153
NameFALCON 9 DEB
Epoch Orbit434
Epoch Day124.60134405
Epoch Year2021
RAAN200.48
Inclination53.0396
Eccentricity0.0006357
Argument of Perigee298.4675
Mean Anonmoly61.5732
Mean Motion16.4404699
Decay Rate0.07876588
L11 48153U 21027BP 21124.60134405 .07876588 12524-4 27779-3 0 9998
L22 48153 53.0396 200.4800 0006357 298.4675 61.5732 16.44046990 4343

Live tracking and technical data element details for FALCON 9 DEB (NORAD 48153). FALCON 9 DEB can be tracked NOW for your location showing map with azimuth and elevation plus other details from your city location.

Track the satellite on the map from your city or location and see movement details for azimuth, elevation, latitude, longitude, range, height, and movement on the map or in text.







IsCatalogInMostPopularTable: catalog: 48153, numindb: 15
Update: records affected: 1



GetName: 48153 FALCON 9 DEB

Hit Count: updated at: Mon, 17 May 2021 15:23:24 GMT